STARLINK-32693

Last updated on Wed Jan 29 2025 00:02:04 GMT+0000 (Coordinated Universal Time)

1 62437U 24251F 25028.50002315 -.01822114 00000+0 -20104-1 0 9997 2 62437 53.1595 64.1859 0001240 67.0131 351.6547 15.65419519 5866
UTC large
Height (km)
Speed (km/s)
/
Latitude / Longitude
Inclination (degrees)
Orbital Period (minutes)
Azimuth
Elevation
Range (km)
Doppler Factor

Next 0 passes for location: London (51.5072 / 0.1276)

Sorry there are no passes over London.